GW0206 Weather Reports


Display with metric or nautical units.
time (UTC)temp
F
wind
direction
speed
MPH
gust
MPH
rain 1hr
in
rain 24hr
in
rain mn
in
humidity
%
barometer
mb
20260505230503 60 167 0.0 5.0 0.01 0.03 0.03 88 1007.4
20260505230009 60 166 1.0 5.0 0.01 0.03 0.03 88 1007.3
20260505225510 60 173 1.0 5.0 0.00 0.02 0.02 88 1007.3
20260505225003 60 195 0.0 2.0 0.00 0.02 0.02 87 1007.2
20260505224505 60 195 0.0 4.0 0.00 0.02 0.02 88 1007.2
20260505224003 60 195 1.0 4.0 0.00 0.02 0.02 88 1007.3
20260505223504 60 190 0.0 4.0 0.00 0.02 0.02 88 1007.3
20260505223005 60 190 0.0 4.0 0.00 0.02 0.02 87 1007.3
20260505222505 60 188 1.0 5.0 0.00 0.02 0.02 87 1007.3
20260505222007 61 130 0.0 5.0 0.00 0.02 0.02 87 1007.5
20260505221513 61 177 2.0 5.0 0.00 0.02 0.02 86 1007.4
20260505221003 61 159 0.0 5.0 0.00 0.02 0.02 86 1007.4
20260505220505 61 186 2.0 6.0 0.00 0.02 0.02 87 1007.5
20260505220040 61 162 1.0 6.0 0.00 0.02 0.02 86 1007.6
20260505215510 61 142 0.0 5.0 0.00 0.02 0.02 85 1007.7
20260505215004 61 124 0.0 8.0 0.00 0.02 0.02 85 1007.6
20260505214525 61 161 2.0 8.0 0.00 0.02 0.02 85 1007.6
20260505214010 62 146 1.0 7.0 0.00 0.02 0.02 86 1007.6
20260505213503 62 137 2.0 8.0 0.00 0.02 0.02 86 1007.5
20260505213006 62 134 3.0 14.0 0.00 0.02 0.02 85 1007.5
20260505212504 61 110 3.0 14.0 0.00 0.02 0.02 85 1007.5
20260505212004 61 104 6.0 12.0 0.00 0.02 0.02 85 1007.5
20260505211510 61 99 8.0 12.0 0.01 0.02 0.02 85 1007.5
20260505211005 61 76 5.0 10.0 0.01 0.02 0.02 85 1007.4
20260505210504 61 98 4.0 12.0 0.02 0.02 0.02 86 1007.5
20260505210017 61 63 6.0 14.0 0.02 0.02 0.02 86 1007.5
20260505205507 61 53 6.0 14.0 0.02 0.02 0.02 85 1007.5
20260505205008 61 109 6.0 14.0 0.02 0.02 0.02 86 1007.5
20260505204523 61 116 7.0 16.0 0.02 0.02 0.02 85 1007.5
20260505204002 61 39 6.0 16.0 0.02 0.02 0.02 86 1007.5
20260505203506 61 56 7.0 13.0 0.02 0.02 0.02 87 1007.5
20260505203024 61 75 10.0 13.0 0.02 0.02 0.02 86 1007.5
20260505202508 62 20 7.0 13.0 0.02 0.02 0.02 84 1007.6
20260505202004 62 28 5.0 13.0 0.02 0.02 0.02 83 1007.7
20260505201518 63 103 6.0 15.0 0.01 0.01 0.01 80 1007.8
20260505201004 64 75 9.0 15.0 0.01 0.01 0.01 77 1007.8
20260505200501 65 58 6.0 14.0 0.00 0.00 0.00 74 1007.8
20260505200012 66 50 9.0 14.0 0.00 0.00 0.00 70 1007.6
20260505195507 66 45 6.0 12.0 0.00 0.00 0.00 70 1007.5
20260505195007 66 23 5.0 11.0 0.00 0.00 0.00 68 1007.6
20260505194519 67 148 7.0 13.0 0.00 0.00 0.00 67 1007.6
20260505194011 67 84 7.0 13.0 0.00 0.00 0.00 67 1007.6
20260505193508 67 102 5.0 11.0 0.00 0.00 0.00 67 1007.6
20260505193033 67 91 6.0 10.0 0.00 0.00 0.00 67 1007.7
20260505192506 67 61 5.0 12.0 0.00 0.00 0.00 69 1007.6
20260505192008 67 94 5.0 13.0 0.00 0.00 0.00 69 1007.7
20260505191526 66 90 7.0 13.0 0.00 0.00 0.00 68 1007.7
20260505191009 66 102 6.0 12.0 0.00 0.00 0.00 68 1007.7
20260505190506 66 93 7.0 11.0 0.00 0.00 0.00 69 1007.8
20260505190025 66 134 3.0 11.0 0.00 0.00 0.00 70 1007.9
20260505185502 66 57 4.0 14.0 0.00 0.00 0.00 69 1008.1
20260505185003 66 84 7.0 14.0 0.00 0.00 0.00 69 1008.2
20260505184515 66 115 5.0 13.0 0.00 0.00 0.00 70 1008.2
20260505184006 65 90 8.0 17.0 0.00 0.00 0.00 69 1008.2
20260505183507 65 103 9.0 17.0 0.00 0.00 0.00 69 1008.4
20260505183019 65 94 7.0 16.0 0.00 0.00 0.00 69 1008.6
20260505182506 65 72 9.0 21.0 0.00 0.00 0.00 68 1008.7
20260505182002 65 126 10.0 21.0 0.00 0.00 0.00 69 1008.6
20260505181504 66 103 10.0 23.0 0.00 0.00 0.00 68 1008.5
20260505181003 66 67 13.0 23.0 0.00 0.00 0.00 67 1008.4
20260505180504 66 47 12.0 24.0 0.00 0.00 0.00 67 1008.3
20260505180008 66 33 14.0 24.0 0.00 0.00 0.00 67 1008.2
20260505175503 67 88 11.0 21.0 0.00 0.00 0.00 67 1008.2
20260505175003 67 59 10.0 23.0 0.00 0.00 0.00 66 1008.0
20260505174508 67 34 9.0 23.0 0.00 0.00 0.00 67 1008.0
20260505174006 67 140 10.0 23.0 0.00 0.00 0.00 66 1007.9
20260505173506 68 60 10.0 23.0 0.00 0.00 0.00 66 1008.0
20260505173002 67 37 15.0 23.0 0.00 0.00 0.00 66 1007.9
20260505172504 67 36 12.0 25.0 0.00 0.00 0.00 65 1007.9
20260505172003 67 55 14.0 25.0 0.00 0.00 0.00 65 1008.0
20260505171503 67 55 16.0 25.0 0.00 0.00 0.00 65 1007.9
20260505171003 68 69 9.0 24.0 0.00 0.00 0.00 65 1008.0
20260505170502 69 103 12.0 24.0 0.00 0.00 0.00 64 1007.8
20260505170004 69 104 10.0 20.0 0.00 0.00 0.00 65 1007.8
20260505165503 68 100 7.0 25.0 0.00 0.00 0.00 65 1007.9
20260505165004 68 46 14.0 25.0 0.00 0.00 0.00 65 1008.0
20260505164508 68 73 10.0 24.0 0.00 0.00 0.00 64 1008.0
20260505164004 68 37 6.0 21.0 0.00 0.00 0.00 64 1008.0
20260505163504 68 115 10.0 21.0 0.00 0.00 0.00 65 1007.9
20260505163011 68 67 14.0 21.0 0.00 0.00 0.00 63 1007.9
20260505162507 69 89 12.0 20.0 0.00 0.00 0.00 63 1008.0
20260505162002 69 101 9.0 17.0 0.00 0.00 0.00 63 1007.9
20260505161506 70 85 10.0 17.0 0.00 0.00 0.00 63 1007.8
20260505161009 69 58 10.0 20.0 0.00 0.00 0.00 64 1007.8
20260505160505 69 9 11.0 20.0 0.00 0.00 0.00 63 1007.6
20260505153012 68 89 9.0 19.0 0.00 0.00 0.00 68 1007.6
20260505152504 68 74 9.0 18.0 0.00 0.00 0.00 67 1007.5
20260505152005 68 83 11.0 18.0 0.00 0.00 0.00 66 1007.6
20260505151516 68 63 10.0 23.0 0.00 0.00 0.00 69 1007.4
20260505151007 68 53 9.0 23.0 0.00 0.00 0.00 67 1007.5
20260505150503 67 26 12.0 18.0 0.00 0.00 0.00 69 1007.4
20260505140505 64 33 9.0 18.0 0.00 0.00 0.00 74 1007.5
20260505125007 60 61 4.0 10.0 0.00 0.00 0.00 77 1007.1
20260505124533 60 327 4.0 9.0 0.00 0.00 0.00 76 1007.0
20260505124008 60 42 4.0 9.0 0.00 0.00 0.00 77 1006.9
20260505123507 60 348 5.0 9.0 0.00 0.00 0.00 77 1006.8
20260505123022 60 14 2.0 9.0 0.00 0.00 0.00 76 1006.9
20260505122507 60 34 4.0 9.0 0.00 0.00 0.00 76 1006.9
20260505122010 60 34 3.0 7.0 0.00 0.00 0.00 76 1006.8
20260505121519 60 17 2.0 7.0 0.00 0.00 0.00 76 1006.7
20260505121007 60 24 4.0 9.0 0.00 0.00 0.00 76 1006.7
20260505120504 60 16 3.0 9.0 0.00 0.00 0.00 75 1006.9
20260505120012 60 31 3.0 8.0 0.00 0.00 0.00 75 1006.9
20260505115506 60 32 3.0 8.0 0.00 0.00 0.00 75 1006.9
20260505115006 61 42 3.0 7.0 0.00 0.00 0.00 74 1007.0
20260505114512 61 44 3.0 9.0 0.00 0.00 0.00 74 1007.0
20260505114007 61 57 3.0 9.0 0.00 0.00 0.00 74 1007.0
20260505113507 61 23 4.0 9.0 0.00 0.00 0.00 73 1007.0
20260505113023 61 11 2.0 12.0 0.00 0.00 0.00 73 1006.8
20260505112506 61 58 6.0 12.0 0.00 0.00 0.00 73 1006.8
20260505112006 61 52 5.0 16.0 0.00 0.00 0.00 73 1006.7
20260505111526 61 42 9.0 16.0 0.00 0.00 0.00 73 1006.7
20260505111015 61 76 6.0 13.0 0.00 0.00 0.00 73 1006.7
20260505110506 61 58 6.0 13.0 0.00 0.00 0.00 72 1006.6
20260505102009 61 67 9.0 20.0 0.00 0.00 0.00 73 1006.2
20260505101528 61 39 9.0 20.0 0.00 0.00 0.00 73 1006.2
20260505101007 60 24 6.0 14.0 0.00 0.00 0.00 74 1006.2
20260505100508 60 45 6.0 17.0 0.00 0.00 0.00 74 1006.2
20260505100026 61 61 8.0 17.0 0.00 0.00 0.00 73 1006.1
20260505095506 61 80 5.0 13.0 0.00 0.00 0.00 73 1006.2
20260505095010 61 50 6.0 18.0 0.00 0.00 0.00 73 1006.1
20260505094531 61 46 8.0 18.0 0.00 0.00 0.00 73 1005.9
20260505094010 61 66 7.0 15.0 0.00 0.00 0.00 72 1006.0
20260505093507 61 51 8.0 20.0 0.00 0.00 0.00 72 1005.9
20260505093020 61 65 11.0 20.0 0.00 0.00 0.00 72 1005.8
20260505092508 61 59 6.0 14.0 0.00 0.00 0.00 72 1005.7
20260505092005 62 49 7.0 14.0 0.00 0.00 0.00 72 1005.7
20260505091503 62 42 6.0 15.0 0.00 0.00 0.00 72 1005.7
20260505091004 62 69 7.0 19.0 0.00 0.00 0.00 71 1005.6
20260505090503 62 49 9.0 23.0 0.00 0.00 0.00 71 1005.4
20260505090005 62 66 10.0 23.0 0.00 0.00 0.00 71 1005.4
20260505085504 62 70 12.0 20.0 0.00 0.00 0.00 71 1005.4
20260505085003 62 63 9.0 23.0 0.00 0.00 0.00 72 1005.3
20260505084525 62 78 11.0 23.0 0.00 0.00 0.00 72 1005.3
20260505084002 62 71 7.0 23.0 0.00 0.00 0.00 72 1005.3
20260505083503 62 61 11.0 23.0 0.00 0.00 0.00 71 1005.3
20260505083007 62 71 11.0 20.0 0.00 0.00 0.00 73 1005.3
20260505082505 62 55 10.0 20.0 0.00 0.00 0.00 73 1005.2
20260505082002 62 19 8.0 16.0 0.00 0.00 0.00 73 1005.1
20260505081515 62 53 9.0 16.0 0.00 0.00 0.00 73 1005.1
20260505081004 62 46 7.0 14.0 0.00 0.00 0.00 73 1005.0
20260505080503 62 57 7.0 14.0 0.00 0.00 0.00 73 1004.9
20260505080009 62 62 8.0 14.0 0.00 0.00 0.00 73 1004.9
20260505075504 62 33 8.0 14.0 0.00 0.00 0.00 73 1004.9
20260505075003 62 19 7.0 14.0 0.00 0.00 0.00 73 1004.9
20260505074508 62 57 9.0 14.0 0.00 0.00 0.00 71 1004.8
20260505074004 62 49 8.0 15.0 0.00 0.00 0.00 71 1004.7
20260505073503 62 50 7.0 15.0 0.00 0.00 0.00 70 1004.7
20260505073008 62 42 6.0 15.0 0.00 0.00 0.00 70 1004.6
20260505072506 62 78 8.0 15.0 0.00 0.00 0.00 70 1004.6
20260505072008 62 32 8.0 15.0 0.00 0.00 0.00 70 1004.6
20260505071508 62 82 6.0 13.0 0.00 0.00 0.00 70 1004.6
20260505071004 62 69 8.0 13.0 0.00 0.00 0.00 70 1004.6
20260505070504 63 77 7.0 16.0 0.00 0.00 0.00 70 1004.6
20260505070012 63 37 8.0 16.0 0.00 0.00 0.00 70 1004.6
20260505065506 63 48 9.0 14.0 0.00 0.00 0.00 70 1004.7
20260505065004 63 63 7.0 14.0 0.00 0.00 0.00 69 1004.7
20260505064512 63 53 8.0 14.0 0.00 0.00 0.00 69 1004.8
20260505064009 63 54 7.0 15.0 0.00 0.00 0.00 70 1004.8
20260505063504 63 52 6.0 16.0 0.00 0.00 0.00 69 1004.9
20260505063010 63 76 9.0 16.0 0.00 0.00 0.00 69 1004.9
20260505062505 63 59 8.0 16.0 0.00 0.00 0.00 69 1004.9
20260505062005 63 19 8.0 18.0 0.00 0.00 0.00 69 1004.9
20260505061518 63 71 6.0 18.0 0.00 0.00 0.00 70 1005.0
20260505061004 63 65 9.0 15.0 0.00 0.00 0.00 69 1005.0
20260505060507 63 24 8.0 15.0 0.00 0.00 0.00 69 1005.1
20260505060010 63 36 6.0 14.0 0.00 0.00 0.00 69 1005.1
20260505055503 64 22 5.0 14.0 0.00 0.00 0.00 69 1005.1
20260505055005 64 57 8.0 15.0 0.00 0.00 0.00 69 1005.2
20260505054517 64 15 10.0 15.0 0.00 0.00 0.00 68 1005.4
20260505054010 64 38 7.0 15.0 0.00 0.00 0.00 68 1005.4
20260505053502 64 22 8.0 15.0 0.00 0.00 0.00 68 1005.5
20260505053012 64 40 7.0 14.0 0.00 0.00 0.00 68 1005.5
20260505052503 64 63 6.0 15.0 0.00 0.00 0.00 68 1005.6
20260505052006 64 32 6.0 15.0 0.00 0.00 0.00 68 1005.5
20260505051517 64 51 8.0 16.0 0.00 0.00 0.00 68 1005.6
20260505051003 64 39 7.0 16.0 0.00 0.00 0.00 68 1005.7
20260505050506 64 40 6.0 16.0 0.00 0.00 0.00 68 1005.7
20260505041518 63 13 8.0 14.0 0.00 0.00 0.00 70 1005.8
20260505041006 63 17 6.0 14.0 0.00 0.00 0.00 69 1005.8
20260505040508 63 29 7.0 15.0 0.00 0.00 0.00 69 1005.9
20260505040016 63 23 6.0 15.0 0.00 0.00 0.00 69 1005.9
20260505035507 63 49 6.0 12.0 0.00 0.00 0.00 69 1006.0
20260505035006 63 47 5.0 13.0 0.00 0.00 0.00 69 1006.1
20260505034524 63 78 7.0 14.0 0.00 0.00 0.00 69 1006.0
20260505034008 63 44 6.0 17.0 0.00 0.00 0.00 69 1006.0
20260505033511 62 22 6.0 17.0 0.00 0.00 0.00 70 1005.9
20260505033016 62 67 7.0 14.0 0.00 0.00 0.00 70 1005.9
20260505032507 62 355 4.0 9.0 0.00 0.00 0.00 70 1005.9
20260505032008 62 19 3.0 10.0 0.00 0.00 0.00 70 1005.8
20260505031518 62 41 4.0 10.0 0.00 0.00 0.00 69 1005.9
20260505031007 62 26 3.0 11.0 0.00 0.00 0.00 69 1005.9
20260505030506 62 24 6.0 11.0 0.00 0.00 0.00 69 1006.0
20260505030024 62 32 4.0 11.0 0.00 0.00 0.00 69 1006.1
20260505025507 63 49 5.0 11.0 0.00 0.00 0.00 68 1006.1
20260505025007 63 54 5.0 11.0 0.00 0.00 0.00 68 1006.1
20260505024521 63 53 4.0 11.0 0.00 0.00 0.00 68 1006.1
20260505024002 63 30 4.0 11.0 0.00 0.00 0.00 68 1006.0
20260505023501 63 34 5.0 11.0 0.00 0.00 0.00 68 1006.1
20260505023005 63 49 5.0 11.0 0.00 0.00 0.00 68 1006.1
20260505022502 63 355 4.0 12.0 0.00 0.00 0.00 68 1006.1
20260505022004 63 11 6.0 12.0 0.00 0.00 0.00 68 1006.3
20260505021504 63 28 3.0 9.0 0.00 0.00 0.00 67 1006.2
20260505021003 63 15 3.0 9.0 0.00 0.00 0.00 67 1006.3
20260505020504 63 5 3.0 9.0 0.00 0.00 0.00 67 1006.3
20260505020012 63 17 4.0 11.0 0.00 0.00 0.00 67 1006.2
20260505015504 64 15 5.0 11.0 0.00 0.00 0.00 66 1006.3
20260505015004 64 22 5.0 11.0 0.00 0.00 0.00 66 1006.2
20260505014513 64 42 3.0 14.0 0.00 0.00 0.00 66 1006.2
20260505014002 64 55 6.0 14.0 0.00 0.00 0.00 65 1006.2
20260505013502 64 51 5.0 14.0 0.00 0.00 0.00 65 1006.2
20260505013004 64 28 5.0 14.0 0.00 0.00 0.00 65 1006.1
20260505012502 65 57 8.0 14.0 0.00 0.00 0.00 64 1006.1
20260505012003 65 55 5.0 14.0 0.00 0.00 0.00 64 1006.1
20260505011504 65 66 6.0 15.0 0.00 0.00 0.00 64 1006.1
20260505011004 65 24 9.0 15.0 0.00 0.00 0.00 63 1006.0
20260505010503 65 49 4.0 13.0 0.00 0.00 0.00 62 1005.8
20260505010012 66 75 7.0 15.0 0.00 0.00 0.00 62 1005.7
20260505005504 66 78 6.0 18.0 0.00 0.00 0.00 62 1005.7
20260505005004 66 39 9.0 19.0 0.00 0.00 0.00 62 1005.7
20260505004503 66 58 11.0 19.0 0.00 0.00 0.00 61 1005.7
20260505004003 66 63 8.0 20.0 0.00 0.00 0.00 61 1005.7
20260505003503 67 28 8.0 20.0 0.00 0.00 0.00 61 1005.6
20260505003012 67 38 9.0 19.0 0.00 0.00 0.00 60 1005.5
20260505002503 67 63 8.0 16.0 0.00 0.00 0.00 60 1005.4
20260505002005 67 65 10.0 17.0 0.00 0.00 0.00 60 1005.4
20260505001508 67 13 9.0 17.0 0.00 0.00 0.00 60 1005.2
20260505001005 67 32 7.0 16.0 0.00 0.00 0.00 60 1005.2
20260505000505 67 22 8.0 14.0 0.00 0.00 0.00 59 1005.2
20260505000014 67 22 9.0 14.0 0.00 0.00 0.00 59 1005.1
20260504235503 68 15 7.0 16.0 0.00 0.00 0.00 58 1005.1
20260504235003 68 14 7.0 18.0 0.00 0.00 0.00 58 1005.0
20260504234504 68 70 8.0 18.0 0.00 0.00 0.00 57 1005.0
20260504234003 69 20 8.0 19.0 0.00 0.00 0.00 57 1005.0
20260504233503 69 57 10.0 19.0 0.00 0.00 0.00 57 1005.0
20260504233005 69 72 8.0 18.0 0.00 0.00 0.00 56 1005.0
20260504232503 70 55 8.0 17.0 0.00 0.00 0.00 56 1005.0
20260504232004 70 61 10.0 16.0 0.00 0.00 0.00 55 1005.1
20260504231520 70 71 9.0 17.0 0.00 0.00 0.00 55 1005.0
20260504231003 70 61 10.0 22.0 0.00 0.00 0.00 56 1005.0